[[{"header":{"parameterUnit":"m.s-1","parameterCategory":1,"la1":30.2991,"la2":30.254,"lo1":-89.0895,"lo2":-89.0444,"dy":0.0017,"dx":0.0017,"nx":28,"ny":28,"refTime":"2024-12-20T03:00:00:Z","depth":0,"parameterNumber":2,"parameterNumberName":"U-component_of_WINDS"},"data":[0,0,0,0,0,0,0,0,0,0,0,0,0,0,0,0,0,0,0,0,0,0,0,0,0,0,0,0,0,0,0,0,0,0,0,0,0,0,0,0,0,0,0,0,0,0,0,0,0,0,0,0,0,0,0,0,0,0,-2.0049,-2.0049,0,-2.0078,-2.0079,-2.0079,-2.0012,-2.001,-2.0008,-2.0006,-2.0037,-2.0039,-2.0042,0,0,0,0,0,0,0,0,0,0,0,0,0,-1.9934,-1.9937,-2.0049,-2.0049,-2.005,-2.0078,-2.0079,-2.0079,-2.0012,-2.001,-2.0007,-2.0005,-2.0036,-2.0039,-2.0042,0,0,0,0,0,0,0,0,0,0,0,0,0,-1.9976,-1.9938,-2.0049,-2.002,-2.0017,-2.0078,-2.0079,-2.0079,-2.0013,-2.001,-2.0006,-2.0003,-2.0035,-2.0039,-2.0043,-2.0133,0,0,-2.0056,-2.0058,0,0,0,0,0,0,0,0,-1.9974,-1.998,-2.0024,-2.0022,-2.0019,-2.0038,-2.0049,-2.0097,-2.0014,-2.0015,-2.0006,-2.0002,-2.004,-2.0043,-2.0056,-2.0135,-2.0136,-2.0056,-2.0059,-2.0061,-2.0062,0,0,0,0,0,0,0,-1.9971,-1.9979,-2.006,-2.0024,-2.0022,-2.0005,-2.0007,-2.0058,-2.0045,-2.0014,-2.001,-2.0014,-2.0038,-2.0052,-2.0056,-2.0137,-2.0056,-2.006,-2.0062,-2.0064,-2.0289,-2.0293,0,0,0,0,0,0,-1.9972,-1.9977,-2.006,-2.0061,-1.9988,-2.001,-2.0012,-2.0035,-2.0044,-2.0042,-2.0017,-2.0011,-2.0046,-2.0051,-2.0057,-2.0163,-2.006,-2.0064,-2.0067,-2.0286,-2.029,-2.0294,0,0,0,0,0,0,-1.997,-1.998,-2.0058,-2.0018,-2.0026,-2.0015,-2.0042,-2.0038,-2.0052,-2.0046,-2.0043,-2.0034,-2.0044,-2.0051,-2.0114,-2.0163,-2.0066,-2.007,-2.0282,-2.0287,-2.0292,-2.0376,0,0,0,0,0,0,-1.9967,-1.9979,-2.0014,-2.0019,-2.0029,-2.0116,-2.0045,-2.0041,-2.0059,-2.0052,-2.0061,-2.006,-2.0042,-2.0109,-2.0119,-2.0167,-2.0074,-2.0278,-2.0284,-2.029,-2.0369,-2.0384,-2.0396,0,0,0,0,0,-1.9963,-2.0037,-2.0016,-2.0027,-2.0072,-2.0119,-2.0124,-2.0103,-2.0063,-2.0098,-2.0094,-2.0059,-2.0156,-2.0116,-2.0126,-2.0177,-2.0274,-2.0282,-2.029,-2.0363,-2.0381,-2.0396,0,0,0,0,0,0,-2.0039,-2.0037,-2.0014,-2.0092,-2.0106,-2.0107,-2.0151,-2.0122,-2.0148,-2.014,-2.0112,-2.0115,-2.0183,-2.0186,-2.0141,-2.0264,-2.0208,-2.0219,-2.026,-2.0277,-2.029,-2.0289,-2.0077,0,0,0,0,0,-2.0065,-2.0103,-2.0099,-2.0169,-2.0177,-2.0163,-2.0182,-2.0164,-2.0177,-2.0183,-2.0184,-2.0198,-2.0231,-2.0254,-2.0285,-2.0368,-2.0369,-2.0408,-2.0422,-2.0433,-2.0443,-2.0486,-2.0503,-2.0319,-2.0319,-2.0319,0,0,-2.0119,-2.0122,-2.0148,-2.0184,-2.0193,-2.0233,-2.0168,-2.0213,-2.0243,-2.019,-2.025,-2.0251,-2.0264,-2.0338,-2.0371,-2.0343,-2.0493,-2.0443,-2.0452,-2.0455,-2.0496,-2.0513,-2.0529,-2.0325,-2.0324,-2.0323,0,0,-2.0238,-2.0244,-2.0302,-2.0312,-2.0325,-2.0315,-2.0329,-2.0334,-2.0333,-2.0392,-2.0353,-2.0387,-2.0445,-2.0456,-2.047,-2.0591,-2.056,-2.0601,-2.0672,-2.0715,-2.073,-2.0743,-2.0786,-2.0801,-2.0611,-2.0611,-2.0611,0,-2.0303,-2.0362,-2.0336,-2.0384,-2.04,-2.0353,-2.0411,-2.0422,-2.0445,-2.0457,-2.0425,-2.0496,-2.0502,-2.0578,-2.0607,-2.0619,-2.0634,-2.0601,-2.073,-2.0742,-2.0754,-2.0794,-2.0811,-2.0616,-2.0615,-2.0615,-2.0614,0,-2.0442,-2.0483,-2.0528,-2.0551,-2.0572,-2.0625,-2.0606,-2.0631,-2.061,-2.0603,-2.0664,-2.0669,-2.0699,-2.0715,-2.0696,-2.0788,-2.077,-2.0734,-2.0678,-2.0777,-2.0815,-2.083,-2.0623,-2.0621,-2.062,-2.0618,0,0,-2.0612,-2.0617,-2.0635,-2.0644,-2.0654,-2.0685,-2.0735,-2.0764,-2.0786,-2.0803,-2.0844,-2.0893,-2.086,-2.0875,-2.0856,-2.0894,-2.0989,-2.0853,-2.0853,-2.0878,-2.1089,-2.1117,-2.1135,-2.0967,-2.097,-2.0973,-2.1088,0,-2.0729,-2.0815,-2.0792,-2.0878,-2.0915,-2.087,-2.0913,-2.0924,-2.0918,-2.0949,-2.0942,-2.0978,-2.0931,-2.094,-2.0975,-2.097,-2.1031,-2.0961,-2.1006,-2.1007,-2.1004,-2.1155,-2.1184,-2.1293,-2.1103,-2.1105,-2.1107,0,-2.0879,-2.09,-2.099,-2.0992,-2.1007,-2.1047,-2.1071,-2.11,-2.1111,-2.1104,-2.112,-2.1093,-2.1142,-2.1084,-2.1151,-2.1104,-2.112,-2.112,-2.1124,-2.1128,-2.1064,-2.1164,-2.1328,-2.1344,-2.113,-2.1128,-2.1127,0,-2.0994,-2.1045,-2.1105,-2.1114,-2.1119,-2.1147,-2.1151,-2.1158,-2.1177,-2.1197,-2.1209,-2.1235,-2.125,-2.127,-2.1251,-2.1211,-2.132,-2.1261,-2.1316,-2.1317,-2.1342,-2.1341,-2.1512,-2.1352,-2.1352,-2.1351,-2.1351,0,-2.1128,-2.1185,-2.1156,-2.1194,-2.1255,-2.1227,-2.1289,-2.1287,-2.1293,-2.1329,-2.1291,-2.1325,-2.1297,-2.1328,-2.1313,-2.137,-2.1377,-2.1372,-2.1368,-2.1376,-2.1377,-2.1388,-2.138,-2.1356,-2.1355,-2.1354,-2.1353,0,-2.1268,-2.1251,-2.1313,-2.1312,-2.1313,-2.1358,-2.1357,-2.1391,-2.1381,-2.1426,-2.1435,-2.1421,-2.1455,-2.1438,-2.1474,-2.1464,-2.1537,-2.1522,-2.1534,-2.153,-2.1586,-2.1581,-2.177,-2.1794,-2.1618,-2.162,-2.1622,0,-2.1355,-2.1397,-2.14,-2.1421,-2.1426,-2.146,-2.1478,-2.1452,-2.1472,-2.1487,-2.1519,-2.155,-2.1574,-2.1631,-2.1624,-2.1651,-2.1636,-2.1701,-2.164,-2.1647,-2.1637,-2.1635,-2.1639,-2.1713,-2.1715,-2.1717,-2.1718,0,-2.1512,-2.1501,-2.1528,-2.1553,-2.1575,-2.1593,-2.1608,-2.1627,-2.1601,-2.1626,-2.166,-2.1679,-2.1715,-2.1746,-2.1769,-2.1772,-2.1741,-2.1737,-2.1751,-2.1761,-2.1766,-2.1764,-2.1568,-2.1733,-2.1732,-2.1731,-2.173,-2.1729,-2.1628,-2.1663,-2.167,-2.1701,-2.1709,-2.1724,-2.1755,-2.1749,-2.1777,-2.1804,-2.1786,-2.1827,-2.1835,-2.1863,-2.1869,-2.1901,-2.1875,-2.1896,-2.1901,-2.1906,-2.1914,-2.176,-2.1905,-2.1904,-2.1904,-2.1903,-2.1903,0,-2.1783,-2.1784,-2.1813,-2.1835,-2.1859,-2.1827,-2.1841,-2.1864,-2.19,-2.1909,-2.1933,-2.1972,-2.2002,-2.1996,-2.2023,-2.2049,-2.2035,-2.2057,-2.2055,-2.2056,-2.1936,-2.1921,-2.2067,-2.2067,-2.2067,-2.2067,-2.2067,-2.2067,-2.1866,-2.1923,-2.1913,-2.1973,-2.1974,-2.2013,-2.2024,-2.2037,-2.2044,-2.209,-2.2114,-2.2109,-2.2113,-2.2139,-2.2165,-2.2162,-2.2174,-2.2201,-2.2193,-2.2081,-2.2065,-2.2049,-2.2035,-2.2204,-2.2204,-2.2311,-2.2312,-2.2313]},{"header":{"parameterUnit":"m.s-1","parameterCategory":1,"la1":30.2991,"la2":30.254,"lo1":-89.0895,"lo2":-89.0444,"dy":0.0017,"dx":0.0017,"nx":28,"ny":28,"refTime":"2024-12-20T03:00:00:Z","depth":0,"parameterNumber":3,"parameterNumberName":"V-component_of_WINDS"},"data":[0,0,0,0,0,0,0,0,0,0,0,0,0,0,0,0,0,0,0,0,0,0,0,0,0,0,0,0,0,0,0,0,0,0,0,0,0,0,0,0,0,0,0,0,0,0,0,0,0,0,0,0,0,0,0,0,0,0,-7.6565,-7.6567,0,-7.6713,-7.6715,-7.6716,-7.6636,-7.6632,-7.6628,-7.6624,-7.6769,-7.6776,-7.6784,0,0,0,0,0,0,0,0,0,0,0,0,0,-7.6205,-7.6212,-7.6565,-7.6567,-7.6569,-7.6713,-7.6715,-7.6717,-7.6636,-7.6631,-7.6627,-7.6622,-7.6766,-7.6775,-7.6785,0,0,0,0,0,0,0,0,0,0,0,0,0,-7.6358,-7.6214,-7.6565,-7.6546,-7.6546,-7.6712,-7.6715,-7.6717,-7.6637,-7.6631,-7.6625,-7.662,-7.6763,-7.6775,-7.6786,-7.6977,0,0,-7.6821,-7.6826,0,0,0,0,0,0,0,0,-7.6349,-7.6371,-7.6547,-7.6548,-7.6548,-7.665,-7.6641,-7.6804,-7.6639,-7.6602,-7.6624,-7.6617,-7.6734,-7.6747,-7.6788,-7.6984,-7.699,-7.6822,-7.6829,-7.6834,-7.6837,0,0,0,0,0,0,0,-7.6339,-7.6364,-7.6623,-7.6549,-7.655,-7.6528,-7.6543,-7.6672,-7.67,-7.6605,-7.66,-7.6619,-7.6733,-7.6777,-7.6791,-7.6992,-7.6821,-7.6832,-7.6839,-7.6843,-7.735,-7.7357,0,0,0,0,0,0,-7.633,-7.6356,-7.6619,-7.6628,-7.6432,-7.6539,-7.6556,-7.6623,-7.6698,-7.6704,-7.6624,-7.6614,-7.6761,-7.6778,-7.6796,-7.7024,-7.6834,-7.6844,-7.6851,-7.7344,-7.7352,-7.7359,0,0,0,0,0,0,-7.6323,-7.6355,-7.6613,-7.6491,-7.6522,-7.6552,-7.6628,-7.6629,-7.6674,-7.6713,-7.6716,-7.6665,-7.6757,-7.678,-7.6933,-7.7028,-7.6849,-7.686,-7.7336,-7.7346,-7.7355,-7.7482,0,0,0,0,0,0,-7.6313,-7.6352,-7.6427,-7.6493,-7.6529,-7.675,-7.6634,-7.6636,-7.6694,-7.6684,-7.6752,-7.6757,-7.6754,-7.6916,-7.6944,-7.704,-7.6869,-7.7328,-7.7341,-7.7352,-7.7469,-7.7495,-7.7517,0,0,0,0,0,-7.63,-7.6456,-7.6432,-7.6464,-7.6623,-7.6756,-7.6776,-7.677,-7.6702,-7.6777,-7.6801,-7.6755,-7.7013,-7.6933,-7.6963,-7.7064,-7.7322,-7.7337,-7.7351,-7.7459,-7.749,-7.7516,0,0,0,0,0,0,-7.6399,-7.6464,-7.6438,-7.662,-7.6683,-7.6742,-7.6835,-7.6804,-7.6886,-7.6872,-7.686,-7.6876,-7.7035,-7.7065,-7.6974,-7.7252,-7.7156,-7.7178,-7.7227,-7.7257,-7.7281,-7.727,-7.6878,0,0,0,0,0,-7.6442,-7.6546,-7.6597,-7.6752,-7.6785,-7.6805,-7.6863,-7.6853,-7.6917,-7.6943,-7.6979,-7.7041,-7.7135,-7.7198,-7.7287,-7.7473,-7.7486,-7.7557,-7.7581,-7.76,-7.7619,-7.7718,-7.775,-7.7408,-7.7408,-7.7408,0,0,-7.6531,-7.658,-7.6646,-7.6773,-7.6821,-7.6927,-7.6828,-7.6945,-7.7022,-7.696,-7.7107,-7.7135,-7.7203,-7.7374,-7.745,-7.7403,-7.7717,-7.762,-7.7635,-7.7643,-7.7737,-7.7769,-7.7798,-7.7418,-7.7416,-7.7415,0,0,-7.6749,-7.6797,-7.6931,-7.6982,-7.7056,-7.7068,-7.71,-7.7164,-7.7181,-7.7329,-7.7284,-7.7375,-7.7539,-7.7589,-7.7636,-7.7871,-7.7831,-7.79,-7.8024,-7.8121,-7.8147,-7.8171,-7.8254,-7.8284,-7.7919,-7.7919,-7.7919,0,-7.685,-7.7011,-7.7004,-7.7124,-7.718,-7.713,-7.7265,-7.7313,-7.7412,-7.7451,-7.7397,-7.7601,-7.7643,-7.7824,-7.7882,-7.7922,-7.7956,-7.7892,-7.8145,-7.8168,-7.819,-7.8269,-7.8301,-7.7927,-7.7926,-7.7925,-7.7925,0,-7.7131,-7.7242,-7.7342,-7.7441,-7.7508,-7.7635,-7.7645,-7.7713,-7.7697,-7.7714,-7.7864,-7.7913,-7.8011,-7.8053,-7.8038,-7.8232,-7.82,-7.8146,-7.8049,-7.8231,-7.8305,-7.8335,-7.7938,-7.7936,-7.7933,-7.7931,0,0,-7.7415,-7.7508,-7.7545,-7.7589,-7.7667,-7.7751,-7.7874,-7.7972,-7.8031,-7.81,-7.8202,-7.8341,-7.8292,-7.8345,-7.8335,-7.842,-7.8602,-7.8355,-7.8356,-7.8398,-7.8815,-7.8855,-7.889,-7.8575,-7.8581,-7.8586,-7.8809,0,-7.7637,-7.7855,-7.7852,-7.8054,-7.8155,-7.8109,-7.8216,-7.8274,-7.8292,-7.8379,-7.8398,-7.8498,-7.8425,-7.8457,-7.8539,-7.8562,-7.8685,-7.8546,-7.8668,-7.8672,-7.8652,-7.8929,-7.8972,-7.9181,-7.8838,-7.8843,-7.8847,0,-7.7925,-7.8006,-7.8219,-7.8281,-7.8323,-7.842,-7.8508,-7.8593,-7.8657,-7.8664,-7.8724,-7.87,-7.8822,-7.8723,-7.889,-7.8796,-7.8845,-7.8864,-7.8871,-7.8882,-7.877,-7.8946,-7.9247,-7.9278,-7.8892,-7.8888,-7.8885,0,-7.811,-7.8272,-7.8419,-7.8458,-7.8535,-7.8603,-7.8638,-7.8696,-7.8754,-7.8831,-7.8868,-7.8957,-7.9006,-7.9074,-7.9074,-7.9002,-7.9243,-7.9143,-7.9251,-7.9251,-7.9303,-7.93,-7.9616,-7.9337,-7.9336,-7.9336,-7.9335,0,-7.8358,-7.8489,-7.8503,-7.8594,-7.8739,-7.8733,-7.8876,-7.8903,-7.8955,-7.9048,-7.9012,-7.91,-7.9095,-7.9184,-7.9184,-7.9322,-7.9344,-7.9352,-7.935,-7.9355,-7.9354,-7.9387,-7.9372,-7.9344,-7.9342,-7.934,-7.9339,0,-7.8589,-7.8604,-7.8761,-7.8821,-7.8839,-7.8943,-7.8993,-7.9077,-7.9093,-7.9211,-7.9238,-7.9262,-7.9364,-7.9371,-7.9488,-7.9488,-7.9655,-7.9638,-7.9634,-7.9631,-7.9738,-7.9727,-8.0085,-8.0131,-7.9823,-7.9826,-7.9828,0,-7.8746,-7.8846,-7.8917,-7.8978,-7.9017,-7.9115,-7.9175,-7.9172,-7.9236,-7.9315,-7.939,-7.9489,-7.9568,-7.9733,-7.9758,-7.9847,-7.9831,-7.9951,-7.9844,-7.9846,-7.9832,-7.9826,-7.9835,-7.9971,-7.9974,-7.9977,-7.9979,0,-7.9023,-7.9025,-7.9114,-7.9206,-7.9279,-7.9351,-7.9417,-7.9468,-7.9473,-7.9546,-7.9651,-7.9712,-7.9832,-7.993,-8.0017,-8.0049,-8.0015,-8.0013,-8.0042,-8.0048,-8.0041,-8.0045,-7.969,-8.0004,-8.0002,-8.0,-7.9999,-7.9998,-7.9221,-7.9307,-7.9371,-7.9471,-7.9521,-7.9584,-7.9666,-7.9692,-7.9781,-7.988,-7.9872,-7.9988,-8.0046,-8.016,-8.0199,-8.0288,-8.0247,-8.029,-8.0301,-8.0311,-8.0322,-8.0028,-8.0304,-8.0303,-8.0302,-8.0302,-8.0301,0,-7.9495,-7.9533,-7.9626,-7.9721,-7.9799,-7.9762,-7.9833,-7.99,-8.0003,-8.0062,-8.0141,-8.0261,-8.0355,-8.0389,-8.048,-8.0544,-8.0531,-8.0568,-8.0563,-8.0571,-8.0354,-8.0319,-8.0578,-8.0578,-8.0578,-8.0578,-8.0577,-8.0577,-7.9647,-7.9791,-7.9801,-7.9968,-8.0005,-8.012,-8.0164,-8.0221,-8.0268,-8.0404,-8.0483,-8.0505,-8.0553,-8.0647,-8.0731,-8.0738,-8.0773,-8.0817,-8.0818,-8.0614,-8.0586,-8.056,-8.0527,-8.0825,-8.0825,-8.1027,-8.1029,-8.103]}]]